Location: Ku?niki
(51.4449°N, 17.8974°E)
Time: 17:36:18
(UTC+00:00)

Iridium 4 Rocket - Pass Details

Date: 18 September 2020
Orbit: 585 x 904 km, 86.9° (Epoch: 22 October)

Event Time Altitude Azimuth Distance (km) Brightness Sun altitude
Rises 17:41:47 0° 185° (S) 3,078 6.6 -8.0°
Reaches altitude 10° 17:43:58 10° 186° (S) 2,211 5.8 -8.4°
Maximum altitude 17:48:56 80° 273° (W) 791 3.7 -9.1°
Drops below altitude 10° 17:54:25 10° 2° (N) 2,438 6.3 -9.9°
Sets 17:56:56 0° 4° (N) 3,420 7.0 -10.3°
